Terug naar catalogus

CZ-6A DEB

ActiefPO
NORAD 60708·DEBRIS·🇨🇳 China

Gelanceerd Aug 6, 2024 vanaf Taiyuan Satellite Launch Center

Loading…

Volgende Passages (komende 24 uur)

TLE

VersSource: Space-Track

Epoch: Sep 14, 2026, 10:54 UTC

1 60708U 24140DM  26257.45464812  .00001147  00000-0  43198-3 0  9999
2 60708  88.9989 263.6186 0038130 291.7145  67.9994 14.30496479108987

Volg CZ-6A DEB in realtime met AllMySat

Download on the App Store